Cut Bank, MT

1:58 PM MDT on October 16, 2019 (GMT -0600)
Cut Bank Municipal

Weather History for KCTB - August, 2019

Change the Weather History Date:

Thursday, August 22, 2019

  Actual Average Record
Temperature  
Mean Temperature 64 °F 62 °F  
Max Temperature 73 °F 78 °F 94 °F (1976)
Min Temperature 55 °F 47 °F 31 °F (1992)
Degree Days  
Heating Degree Days 1 4  
Month to date heating degree days 46 61  
Since 1 June heating degree days 361 380  
Since 1 July heating degree days 139 147  
Cooling Degree Days 0 1  
Month to date cooling degree days 49 56  
Year to date cooling degree days 102 145  
Since 1 June cooling degree days 102 143  
Growing Degree Days 14 (Base 50)    
Moisture  
Dew Point 51 °F    
Average Humidity 63    
Maximum Humidity 87    
Minimum Humidity 40    
Precipitation  
Precipitation 0.02 in 0.04 in 1.89 in (1978)
Month to date precipitation 1.21 0.83  
Year to date precipitation 8.62 8.30  
Snow  
Snow - - - ()
Snow Depth 0.00 in    
Sea Level Pressure  
Sea Level Pressure 29.82 in    
Wind  
Wind Speed 7 mph ()    
Max Wind Speed 20 mph    
Max Gust Speed 23 mph    
Visibility 9.8 miles    
Events Rain    
T = Trace of Precipitation, MM = Missing Value Source: Averaged Metar Reports

Daily Weather History Graph

Daily Weather History Graph

Search for Another Location

Airport or City:

Astronomy

Aug. 22, 2019 Rise Set
Actual Time 6:32 AM MDT 8:31 PM MDT
Civil Twilight 5:58 AM MDT 9:05 PM MDT
Nautical Twilight 5:16 AM MDT 9:46 PM MDT
Astronomical Twilight 4:30 AM MDT 10:32 PM MDT
Moon 11:49 PM MDT (8/22) 1:44 PM MDT (8/22)
Length of Visible Light 15h 06m
Length of Day
13h 58m
Waning Gibbous, 59% of the Moon is Illuminated
Aug 22
Waning Gibbous
Aug 23
Last Quarter
Aug 30
New
Sep 5
First Quarter
Sep 13
Full

Hourly Weather History & Observations

Time (MDT) Temp. Dew Point Humidity Pressure Visibility Wind Dir Wind Speed Gust Speed Precip Events Conditions
12:56 AM 66.9 °F 48.9 °F 52% 29.71 in 10.0 mi SSE 11.5 mph - N/A   Clear
1:56 AM 64.0 °F 48.0 °F 56% 29.70 in 10.0 mi SSW 4.6 mph - N/A   Clear
2:56 AM 64.0 °F 48.0 °F 56% 29.69 in 10.0 mi South 3.5 mph - N/A   Partly Cloudy
3:56 AM 63.0 °F 50.0 °F 63% 29.68 in 10.0 mi NE 4.6 mph - N/A   Scattered Clouds
6:56 AM 60.1 °F 52.0 °F 75% 29.70 in 10.0 mi West 11.5 mph - N/A   Unknown
7:56 AM 62.1 °F 53.1 °F 72% 29.75 in 10.0 mi WNW 6.9 mph - N/A   Mostly Cloudy
8:56 AM 62.1 °F 54.0 °F 75% 29.75 in 10.0 mi NNW 10.4 mph - 0.01 in Rain Light Rain
9:56 AM 62.1 °F 55.0 °F 78% 29.80 in 10.0 mi NNE 3.5 mph - 0.00 in   Overcast
10:56 AM 63.0 °F 52.0 °F 67% 29.83 in 10.0 mi NNW 8.1 mph - 0.00 in   Overcast
11:56 AM 63.0 °F 53.1 °F 70% 29.84 in 6.0 mi NW 6.9 mph - 0.01 in Rain Light Rain
12:56 PM 66.0 °F 50.0 °F 56% 29.83 in 10.0 mi West 9.2 mph - 0.00 in   Overcast
1:56 PM 63.0 °F 50.0 °F 63% 29.86 in 10.0 mi WSW 11.5 mph - N/A   Overcast
2:56 PM 69.1 °F 50.0 °F 51% 29.86 in 10.0 mi WNW 8.1 mph - N/A   Overcast
3:56 PM 71.1 °F 46.9 °F 42% 29.84 in 10.0 mi Variable 5.8 mph - N/A   Clear
4:56 PM 70.0 °F 46.0 °F 42% 29.85 in 10.0 mi NW 5.8 mph - N/A   Mostly Cloudy
5:56 PM 72.0 °F 46.0 °F 40% 29.85 in 10.0 mi West 4.6 mph - N/A   Overcast
6:56 PM 71.1 °F 50.0 °F 47% 29.88 in 10.0 mi NE 10.4 mph - N/A   Mostly Cloudy
8:56 PM 62.1 °F 53.1 °F 72% 29.95 in 10.0 mi North 11.5 mph - N/A   Mostly Cloudy
9:56 PM 57.0 °F 52.0 °F 83% 29.97 in 10.0 mi NNW 8.1 mph - N/A   Scattered Clouds
10:56 PM 59.0 °F 53.1 °F 81% 29.96 in 10.0 mi NNW 8.1 mph - N/A   Overcast
11:56 PM 57.0 °F 53.1 °F 87% 29.97 in 10.0 mi NNW 9.2 mph - N/A   Scattered Clouds